Location: Sweet Grass
(48.9965°N, 111.9649°W)
Time: 12:48:13
(UTC+00:00)

Envisat - Pass Details

Date: 13 December 2022
Orbit: 763 x 765 km, 98.2° (Epoch: 06 February)

Event Time Altitude Azimuth Distance (km) Brightness Sun altitude
Rises 13:05:47 0° 4° (N) 3,246 6.2 -19.9°
Reaches altitude 10° 13:08:28 10° 352° (N) 2,315 5.3 -19.4°
Enters shadow 13:09:35 15° 342° (NNW) 1,985 4.8 -19.3°
